BREEZE-M DEB (TANK), 40386

Orbit data source: Space-Track

BREEZE-M DEB (TANK), 40386 is space debris in HEO originally from a launch on Sun, 01 Feb 2015 UTC launched from the Tyuratam Missile And Space Complex (TTMTR). Debris objects in space refer to the collection of defunct objects orbiting the Earth. Examples of debris include non-operational satellites, rocket bodies, and fragments generated from explosions, collisions, or faulty payload assembly.

Loading next visibility...
Identifier
40386, 2015-005C
Orbit
HEO
Country
Flag of CISCIS
Related business
Manufacturer
Khrunichev
Mission
Spacecraft
Bus & Motor
BRIZ TANK, Unknown motor
Mass
~1,000 kg wet, 1,000 kg dry
Launch date (UTC)
2015-02-01 (11 years ago)
Launch vehicle
Unknown
Launch site
Tyuratam Missile And Space Complex (TTMTR)
Object type
Payload
Rocket body
Debris
Shape & HBR
Torus, 2.0 m
Radar Cross Section
8.218 m², Large (>1 m²)

Expand to show TLE details & history
Last TLE update: 15 hours ago

TLE from 15 hours ago
0 BREEZE-M DEB (TANK)
1 40386U 15005C   25258.36361168  .00002682  00000-0  14766-2 0  9992
2 40386  50.7169 257.7952 5109991 348.8409   3.1222  5.33169962201072
Epoch: 2025-09-15T08:43Z
TLE epoch observation values (Epoch: 2025-09-15T08:43:36.049Z)
Latitude
-0.00026°
Longitude
132.32943°
Altitude
437.885 km
Speed
9.39 km/s
True Right ascension
17h 11m 11s
True Declination
0° 00' 01"
Sunlit
Object was in daylight at epoch
Visualization orbit readout
Latitude
Unknown
Longitude
Unknown
Altitude
Unknown
Speed
Unknown
Apparent Right ascension
Unknown
Apparent Declination
Unknown
Sunlit
N/A
Visualization observer readout
Local Sidereal Time
15:59:55
Azimuth
Unknown
Elevation
Unknown
Doppler factor
Unknown
Orbital elements
Apogee altitude
14,535.928 km
Perigee altitude
390.23 km
Semi-major axis
13,841.216 km
Eccentricity
0.511
Inclination
50.7169°
RAAN
257.7952°
Arg. of periapsis
348.8409°
True anomaly
11.17539°
Mean anomaly
3.1222°
Eccentric anomaly
6.37114°
Mean motion
1.33285 °/min
Orbital period
270.1 mins
BSTAR
0.0014766
Loading maneuver chart data...
Computing Atmospheric mass density...
Loading historical data...
Loading historical data...
Loading historical data...
Loading historical data...
Loading historical data...
Loading historical data...
Loading historical data...
Other satellites on launch #5 in the year 2015 (2015-02-01 UTC)

Documentation

Showing up to 5 results
|